"Pseudo-MPEC" for P115bLP

Created 2020 Sep 19 20:07:23 UT using Find_Orb

Click here for an explanation of pseudo-MPECs

 
 Astrometry: 
     P115bLP  C2020 09 08,(T8ny;^'nEkD?#._qGNyo4XAstrometry?;redacted;8Ul`8FxF51
     P115bLP  C2020 09 08,nD'bjL`/)onpw?ShwM*j'9\clickgQ]f87Z\vhereLD]6M,^(V[F51
     P115bLP  C2020 09 08(uforiJLTwHSdSj*k'(y;.CRDJ^)Rn4i-9;#m2explanationoeeF51

Station data:
(F51) Pan-STARRS 1, Haleakala  (N20.707235 W156.255910)  US/Hawaii.
   Observers N. Primak, A. Schultz, S. Watters, J. Thiel, T. Goggia. Measurer
   PS1 Science Consortium. 1.8-m Ritchey-Chrétien + CCD.

Orbital elements:  P115bLP
   Perihelion 2020 Jul 14.829698 +/- 31 TT = 19:54:45 (JD 2459045.329698)
Epoch 2020 Sep  8.0 TT = JDT 2459100.5   Earth MOID: 0.0121   AutoNEOCP
M  49.27202076 +/- 33               (J2000 ecliptic)
n   0.89308955 +/- 0.532            Peri.  126.44315 +/- 60
a   1.06792161 +/- 0.424            Node   162.84927 +/- 25
e   0.0672572 +/- 0.248             Incl.    6.34390 +/- 18
P   1.10/403.09d           H 27.2   G  0.15   U 12.3  SR
q 0.99609617 +/- 0.327    Q 1.13974705 +/- 27.8
From 3 observations 2020 Sept. 8 (44.6 min); mean residual 0".03
Residuals in arcseconds: 
200908 F51  .03+  .01+    200908 F51  .05-  .02-    200908 F51  .02+  .01+    

Ephemerides (geocentric):
Date (UTC) HH   RA              Dec         delta   r     elong  mag " sig PA
---- -- -- --  -------------   -----------  ------ ------ -----  --- ---- ---
2020 09 19 20  22 56 10.745   -46 11 04.08  .04459 1.0356 133.5 22.3  33d 156
2020 09 19 21  22 56 28.638   -46 11 54.96  .04469 1.0356 133.5 22.3  33d 156
2020 09 19 22  22 56 46.472   -46 12 45.31  .04478 1.0357 133.5 22.3  33d 156
2020 09 19 23  22 57 04.246   -46 13 35.12  .04487 1.0357 133.5 22.3  33d 156
2020 09 20 00  22 57 21.962   -46 14 24.40  .04497 1.0357 133.4 22.3  33d 156
2020 09 20 01  22 57 39.618   -46 15 13.16  .04506 1.0358 133.4 22.3  33d 156
2020 09 20 02  22 57 57.217   -46 16 01.40  .04515 1.0358 133.4 22.3  33d 156
2020 09 20 03  22 58 14.757   -46 16 49.12  .04524 1.0359 133.4 22.3  33d 156
2020 09 20 04  22 58 32.238   -46 17 36.33  .04534 1.0359 133.3 22.3  33d 156
2020 09 20 05  22 58 49.663   -46 18 23.03  .04543 1.0360 133.3 22.3  33d 156
2020 09 20 06  22 59 07.029   -46 19 09.23  .04552 1.0360 133.3 22.3  33d 156
2020 09 20 07  22 59 24.338   -46 19 54.92  .04562 1.0360 133.3 22.3  33d 156
2020 09 20 08  22 59 41.590   -46 20 40.11  .04571 1.0361 133.3 22.3  33d 156
2020 09 20 09  22 59 58.785   -46 21 24.80  .04580 1.0361 133.2 22.3  33d 156
2020 09 20 10  23 00 15.924   -46 22 09.00  .04590 1.0362 133.2 22.3  33d 156
2020 09 20 11  23 00 33.005   -46 22 52.72  .04599 1.0362 133.2 22.4  33d 156
2020 09 20 12  23 00 50.031   -46 23 35.94  .04608 1.0363 133.2 22.4  33d 156
2020 09 20 13  23 01 07.001   -46 24 18.69  .04618 1.0363 133.2 22.4  33d 156
2020 09 20 14  23 01 23.914   -46 25 00.95  .04627 1.0363 133.1 22.4  33d 156
2020 09 20 15  23 01 40.772   -46 25 42.74  .04636 1.0364 133.1 22.4  33d 156
2020 09 20 16  23 01 57.575   -46 26 24.06  .04646 1.0364 133.1 22.4  33d 156
2020 09 20 17  23 02 14.323   -46 27 04.90  .04655 1.0365 133.1 22.4  33d 156
2020 09 20 18  23 02 31.015   -46 27 45.28  .04665 1.0365 133.1 22.4  33d 156
2020 09 20 19  23 02 47.653   -46 28 25.20  .04674 1.0366 133.0 22.4  33d 156
2020 09 20 20  23 03 04.237   -46 29 04.66  .04683 1.0366 133.0 22.4  33d 156
2020 09 20 21  23 03 20.766   -46 29 43.66  .04693 1.0366 133.0 22.4  34d 156
2020 09 20 22  23 03 37.241   -46 30 22.20  .04702 1.0367 133.0 22.4  34d 156
2020 09 20 23  23 03 53.662   -46 31 00.30  .04711 1.0367 133.0 22.4  34d 156
2020 09 21 00  23 04 10.029   -46 31 37.94  .04721 1.0368 132.9 22.4  34d 156
2020 09 21 01  23 04 26.343   -46 32 15.14  .04730 1.0368 132.9 22.4  34d 156
2020 09 21 02  23 04 42.604   -46 32 51.90  .04740 1.0369 132.9 22.4  34d 156
2020 09 21 03  23 04 58.812   -46 33 28.23  .04749 1.0369 132.9 22.4  34d 156
2020 09 21 04  23 05 14.966   -46 34 04.11  .04759 1.0369 132.9 22.4  34d 156
2020 09 21 05  23 05 31.069   -46 34 39.56  .04768 1.0370 132.8 22.4  34d 156
2020 09 21 06  23 05 47.118   -46 35 14.58  .04777 1.0370 132.8 22.4  34d 156
2020 09 21 07  23 06 03.116   -46 35 49.18  .04787 1.0371 132.8 22.5  34d 156
2020 09 21 08  23 06 19.062   -46 36 23.35  .04796 1.0371 132.8 22.5  34d 156
2020 09 21 09  23 06 34.955   -46 36 57.10  .04806 1.0372 132.8 22.5  34d 156
2020 09 21 10  23 06 50.798   -46 37 30.42  .04815 1.0372 132.7 22.5  34d 156
2020 09 21 11  23 07 06.589   -46 38 03.34  .04825 1.0372 132.7 22.5  34d 156
2020 09 21 12  23 07 22.328   -46 38 35.84  .04834 1.0373 132.7 22.5  34d 156
2020 09 21 13  23 07 38.017   -46 39 07.93  .04843 1.0373 132.7 22.5  34d 156
2020 09 21 14  23 07 53.655   -46 39 39.61  .04853 1.0374 132.7 22.5  34d 156
2020 09 21 15  23 08 09.242   -46 40 10.88  .04862 1.0374 132.7 22.5  34d 156
2020 09 21 16  23 08 24.779   -46 40 41.76  .04872 1.0375 132.6 22.5  34d 156
2020 09 21 17  23 08 40.266   -46 41 12.23  .04881 1.0375 132.6 22.5  34d 156
2020 09 21 18  23 08 55.703   -46 41 42.31  .04891 1.0375 132.6 22.5  34d 156
2020 09 21 19  23 09 11.090   -46 42 11.99  .04900 1.0376 132.6 22.5  34d 156